Date,TemperatureHighF,TemperatureAvgF,TemperatureLowF,DewpointHighF,DewpointAvgF,DewpointLowF,HumidityHigh,HumidityAvg,HumidityLow,PressureMaxIn,PressureMinIn,WindSpeedMaxMPH,WindSpeedAvgMPH,GustSpeedMaxMPH,PrecipitationSumIn
2013-10-1,69.8,60.3,52.9,63.0,58.2,52.6,99,93,75,30.10,30.02,8,2,0,0.00
2013-10-2,73.6,63.0,55.8,65.6,60.5,55.5,99,92,72,30.12,30.06,9,2,0,0.00
2013-10-3,77.2,65.4,57.4,67.3,62.0,57.1,99,90,67,30.14,30.05,6,1,0,0.00
2013-10-4,78.8,68.1,61.5,68.4,64.9,61.2,99,90,68,30.13,30.05,6,2,0,0.00
2013-10-5,81.3,67.6,62.2,66.2,64.0,61.9,99,90,58,30.12,30.02,5,2,0,0.00
2013-10-6,81.9,74.0,61.9,64.1,60.5,56.7,99,64,46,29.99,29.84,7,3,0,0.00
2013-10-7,65.1,54.4,42.4,62.8,51.8,42.1,99,92,74,30.07,29.72,12,5,0,0.54
2013-10-8,63.1,50.2,40.3,48.4,42.9,39.7,99,79,44,30.27,30.06,5,1,0,0.00
2013-10-9,57.2,49.2,41.0,46.7,43.3,39.1,99,81,63,30.30,30.21,6,2,0,0.00
2013-10-10,59.0,51.0,45.1,53.9,47.6,41.5,99,89,62,30.19,30.06,3,1,0,0.36
2013-10-11,56.7,53.0,49.1,56.4,52.7,48.8,99,99,99,30.04,29.98,4,1,0,0.57
2013-10-12,62.1,58.0,53.2,61.8,57.7,52.9,99,99,99,30.12,30.02,5,2,0,0.27
2013-10-13,59.2,55.0,52.3,58.6,54.7,52.0,99,99,98,30.27,30.23,5,2,0,0.44
2013-10-14,62.8,55.3,51.6,61.6,55.0,51.3,99,99,96,30.29,30.20,5,1,0,0.01
2013-10-15,64.4,56.9,51.4,59.1,54.9,51.1,99,94,83,30.22,30.04,6,1,0,0.00
2013-10-16,67.8,62.3,49.8,61.9,57.7,47.1,99,85,70,29.98,29.87,7,2,0,0.00
2013-10-17,64.4,56.9,45.0,62.2,56.5,44.7,99,99,92,29.89,29.64,14,4,0,0.12
2013-10-18,56.3,46.9,41.4,44.7,41.8,38.4,99,84,54,29.97,29.82,11,5,0,0.01
2013-10-19,55.6,44.4,35.6,49.3,41.7,35.3,99,91,58,29.93,29.71,14,3,0,0.02
2013-10-20,53.2,42.7,36.0,37.8,36.0,33.9,99,79,49,30.02,29.84,9,4,0,0.00
2013-10-21,63.5,49.3,36.9,37.0,34.5,30.8,87,60,35,30.02,29.85,9,2,0,0.00
2013-10-22,52.7,44.3,34.5,45.6,36.8,31.0,99,77,54,29.85,29.77,8,3,0,0.01
2013-10-23,39.4,35.4,32.0,39.1,34.4,30.6,99,96,83,29.81,29.61,7,2,0,0.10
2013-10-24,37.0,32.7,30.6,33.2,31.5,28.7,99,95,75,30.03,29.80,11,5,0,0.06
2013-10-25,38.1,31.8,29.5,33.5,30.7,29.3,99,96,81,30.23,30.03,10,5,0,0.00
2013-10-26,46.9,37.1,28.0,30.0,26.5,20.9,99,70,36,30.18,29.84,13,5,0,0.00
2013-10-27,48.6,40.7,34.2,34.4,31.4,29.3,95,71,50,30.05,29.88,10,4,0,0.00
2013-10-28,57.9,43.1,31.6,39.0,33.9,30.7,99,74,39,30.23,30.04,6,1,0,0.00
2013-10-29,58.1,44.4,32.4,38.3,34.2,30.2,99,70,37,30.30,30.22,9,1,0,0.00
2013-10-30,60.3,51.8,40.8,55.5,49.2,37.0,99,91,82,30.23,30.10,5,1,0,0.02
2013-10-31,64.6,58.8,53.4,58.9,56.5,53.1,99,93,77,30.11,29.58,7,2,0,0.03